Regional Weather Roundup
Issued by NWS

Home | Current Version | Previous Version | Graphics & Text | Print | Product List | Glossary On
Versions: 1 2 3 4 5 6 7 8 9 10 11 12 13 14 15 16 17 18 19 20 21 22 23 24 25 26 27 28 29 30 31 32 33 34 35 36 37 38 39 40 41 42 43 44 45 46 47 48 49 50
000
ASUS43 KFSD 061402
RWRSD

WEATHER ROUNDUP FOR SOUTH DAKOTA
NATIONAL WEATHER SERVICE SIOUX FALLS SD
900 AM CDT WED MAY 06 2015

NOTE: "FAIR" INDICATES FEW OR NO CLOUDS BELOW 12,000 FEET WITH NO
SIGNIFICANT WEATHER AND/OR OBSTRUCTIONS TO VISIBILITY.


SDZ001>005-009-010-012>017-061500-
NORTHWEST AND NORTH CENTRAL SOUTH DAKOTA

CITY           SKY/WX    TMP DP  RH WIND       PRES   REMARKS
BUFFALO          N/A     55  54  96 SE10      29.66F
FAITH            N/A     56  54  93 SE14      29.72F
MOBRIDGE       CLOUDY    62  58  86 SE15      29.74F
$$

SDZ012>016-024>037-041>051-057-063-072>074-061500-
SOUTHWEST AND SOUTH CENTRAL SOUTH DAKOTA

CITY           SKY/WX    TMP DP  RH WIND       PRES   REMARKS
RAPID CTY ARPT LGT RAIN  54  53  97 SE8       29.71S FOG
PIERRE         CLOUDY    61  58  90 SE14      29.74F
CUSTER         LGT RAIN  48  46  93 E5        29.74F FOG
ELLSWORTH AFB  LGT RAIN  54  54 100 SE6       29.71S FOG
PHILIP         CLOUDY    60  58  92 SE10      29.71F
PINE RIDGE     CLOUDY    57  52  83 SE7       29.70F
WINNER         PTSUNNY   64  57  78 SE17      29.74F
$$

SDZ004>011-016>023-039-040-061500-
NORTHEAST SOUTH DAKOTA

CITY           SKY/WX    TMP DP  RH WIND       PRES   REMARKS
ABERDEEN       RAIN      62  59  90 SE13      29.84S FOG
WATERTOWN      LGT RAIN  62  59  90 SE12G21   29.89F FOG
BROOKINGS      CLOUDY    63  61  94 SE15      29.90F
SISSETON         N/A     56  56 100 S16       29.90F
$$

SDZ017-020-022-023-036>040-048>070-061500-
SOUTHEAST SOUTH DAKOTA

CITY           SKY/WX    TMP DP  RH WIND       PRES   REMARKS
SIOUX FALLS    LGT RAIN  63  59  87 SE13      29.88F
HURON          CLOUDY    64  59  83 SE17G26   29.81F
MITCHELL       CLOUDY    63  60  90 SE17      29.83F
YANKTON        CLOUDY    63  59  88 E15       29.81F
$$

ABBREVIATIONS USED IN REMARKS
   TC - TEMPERATURE IN CELSIUS
  WCI - WIND CHILL INDEX
   HX - HEAT INDEX
  VSB - VISIBILITY




USA.gov is the U.S. government's official web portal to all federal, state and local government web resources and services.